Location: Heidgraben
(53.7081°N, 9.6576°E)
Time: 00:14:25
(UTC+00:00)

Cosmos 2333 Rocket - Pass Details

Date: 29 October 2020
Orbit: 841 x 861 km, 70.8° (Epoch: 28 November)

Event Time Altitude Azimuth Distance (km) Brightness Sun altitude
Exits shadow 00:33:02 11° 18° (NNE) 2,385 5.0 -46.2°
Drops below altitude 10° 00:33:26 10° 21° (NNE) 2,485 5.2 -46.2°
Sets 00:36:37 0° 39° (NE) 3,419 6.1 -46.0°
